Time,TemperatureF,DewpointF,PressureIn,WindDirection,WindDirectionDegrees,WindSpeedMPH,WindSpeedGustMPH,Humidity,HourlyPrecipIn,Conditions,Clouds,dailyrainin,SoftwareType,DateUTC
2013-04-25 00:00:00,34.9,26.4,30.35,NNE,22,0.0,0.0,71,0.00,,,0.00,WUHU21623XXSP,2013-04-25 05:00:00,
2013-04-25 00:05:00,34.7,26.2,30.35,NNE,22,0.0,0.0,71,0.00,,,0.00,WUHU21623XXSP,2013-04-25 05:05:00,
2013-04-25 00:10:00,34.7,26.5,30.36,NNE,22,0.0,0.0,72,0.00,,,0.00,WUHU21623XXSP,2013-04-25 05:10:00,
2013-04-25 00:15:00,34.7,26.5,30.36,NNE,22,0.0,0.0,72,0.00,,,0.00,WUHU21623XXSP,2013-04-25 05:15:00,
2013-04-25 00:20:00,34.7,26.5,30.36,NNE,22,0.0,0.0,72,0.00,,,0.00,WUHU21623XXSP,2013-04-25 05:20:00,
2013-04-25 00:25:00,34.5,26.3,30.35,NNE,22,0.0,0.0,72,0.00,,,0.00,WUHU21623XXSP,2013-04-25 05:25:00,
2013-04-25 00:30:00,34.3,26.2,30.36,NNE,22,0.0,0.0,72,0.00,,,0.00,WUHU21623XXSP,2013-04-25 05:30:00,
2013-04-25 00:35:00,34.3,26.2,30.36,NNE,22,0.0,0.0,72,0.00,,,0.00,WUHU21623XXSP,2013-04-25 05:35:00,
2013-04-25 00:40:00,34.3,26.2,30.36,NNE,22,0.0,0.0,72,0.00,,,0.00,WUHU21623XXSP,2013-04-25 05:40:00,
2013-04-25 00:45:00,34.0,25.8,30.36,NNE,22,0.0,0.0,72,0.00,,,0.00,WUHU21623XXSP,2013-04-25 05:45:00,
2013-04-25 00:50:00,33.8,25.6,30.36,NNE,22,0.0,0.0,72,0.00,,,0.00,WUHU21623XXSP,2013-04-25 05:50:00,
2013-04-25 00:55:00,33.6,25.8,30.36,NNE,22,0.0,0.0,73,0.00,,,0.00,WUHU21623XXSP,2013-04-25 05:55:00,
2013-04-25 01:00:00,33.4,25.8,30.36,NNE,22,0.0,0.0,73,0.00,,,0.00,WUHU21623XXSP,2013-04-25 06:00:00,
2013-04-25 01:05:00,33.4,25.8,30.36,NNE,22,0.0,0.0,73,0.00,,,0.00,WUHU21623XXSP,2013-04-25 06:05:00,
2013-04-25 01:15:00,33.1,25.3,30.36,NNE,22,0.0,0.0,73,0.00,,,0.00,WUHU21623XXSP,2013-04-25 06:15:00,
2013-04-25 01:20:00,32.9,25.5,30.36,NNE,22,0.0,0.0,74,0.00,,,0.00,WUHU21623XXSP,2013-04-25 06:20:00,
2013-04-25 01:25:00,32.7,25.6,30.36,NNE,22,0.0,0.0,75,0.00,,,0.00,WUHU21623XXSP,2013-04-25 06:25:00,
2013-04-25 01:30:00,32.7,25.6,30.36,NNE,22,0.0,0.0,75,0.00,,,0.00,WUHU21623XXSP,2013-04-25 06:30:00,
2013-04-25 01:35:00,32.5,25.8,30.36,NNE,22,0.0,0.0,76,0.00,,,0.00,WUHU21623XXSP,2013-04-25 06:35:00,
2013-04-25 01:40:00,32.4,25.6,30.36,NNE,22,0.0,0.0,76,0.00,,,0.00,WUHU21623XXSP,2013-04-25 06:40:00,
2013-04-25 01:45:00,32.2,25.8,30.36,NNE,22,0.0,0.0,77,0.00,,,0.00,WUHU21623XXSP,2013-04-25 06:45:00,
2013-04-25 01:50:00,32.2,25.8,30.36,NNE,22,0.0,0.0,77,0.00,,,0.00,WUHU21623XXSP,2013-04-25 06:50:00,
2013-04-25 01:55:00,31.8,25.8,30.35,NNE,22,0.0,0.0,78,0.00,,,0.00,WUHU21623XXSP,2013-04-25 06:55:00,
2013-04-25 02:00:00,31.8,25.8,30.35,NNE,22,0.0,0.0,78,0.00,,,0.00,WUHU21623XXSP,2013-04-25 07:00:00,
2013-04-25 02:05:00,31.8,25.8,30.35,NNE,22,0.0,0.0,78,0.00,,,0.00,WUHU21623XXSP,2013-04-25 07:05:00,
2013-04-25 02:15:00,31.8,26.1,30.35,NNE,22,0.0,0.0,79,0.00,,,0.00,WUHU21623XXSP,2013-04-25 07:15:00,
2013-04-25 02:20:00,31.6,25.9,30.35,NNE,22,0.0,0.0,79,0.00,,,0.00,WUHU21623XXSP,2013-04-25 07:20:00,
2013-04-25 02:25:00,31.6,25.6,30.34,NNE,22,0.0,0.0,78,0.00,,,0.00,WUHU21623XXSP,2013-04-25 07:25:00,
2013-04-25 02:30:00,31.6,25.6,30.34,NNE,22,0.0,0.0,78,0.00,,,0.00,WUHU21623XXSP,2013-04-25 07:30:00,
2013-04-25 02:35:00,31.6,25.6,30.34,NNE,22,0.0,0.0,78,0.00,,,0.00,WUHU21623XXSP,2013-04-25 07:35:00,
2013-04-25 02:40:00,31.3,25.2,30.34,NNE,22,0.0,0.0,78,0.00,,,0.00,WUHU21623XXSP,2013-04-25 07:40:00,
2013-04-25 02:45:00,31.3,25.6,30.34,NNE,22,0.0,0.0,79,0.00,,,0.00,WUHU21623XXSP,2013-04-25 07:45:00,
2013-04-25 02:50:00,31.3,25.6,30.34,NNE,22,0.0,0.0,79,0.00,,,0.00,WUHU21623XXSP,2013-04-25 07:50:00,
2013-04-25 02:55:00,31.1,25.4,30.33,NNE,22,0.0,0.0,79,0.00,,,0.00,WUHU21623XXSP,2013-04-25 07:55:00,
2013-04-25 03:00:00,30.9,25.2,30.32,NNE,22,0.0,0.0,79,0.00,,,0.00,WUHU21623XXSP,2013-04-25 08:00:00,
2013-04-25 03:05:00,30.9,25.2,30.32,NNE,22,0.0,0.0,79,0.00,,,0.00,WUHU21623XXSP,2013-04-25 08:05:00,
2013-04-25 03:19:00,30.4,24.7,30.33,NNE,22,0.0,0.0,79,0.00,,,0.00,WUHU21623XXSP,2013-04-25 08:19:00,
2013-04-25 03:24:00,30.2,24.5,30.32,NNE,22,0.0,0.0,79,0.00,,,0.00,WUHU21623XXSP,2013-04-25 08:24:00,
2013-04-25 03:29:00,30.0,24.3,30.32,NNE,22,0.0,0.0,79,0.00,,,0.00,WUHU21623XXSP,2013-04-25 08:29:00,
2013-04-25 03:34:00,30.0,24.6,30.33,NNE,22,0.0,0.0,80,0.00,,,0.00,WUHU21623XXSP,2013-04-25 08:34:00,
2013-04-25 03:39:00,30.0,24.6,30.32,NNE,22,0.0,0.0,80,0.00,,,0.00,WUHU21623XXSP,2013-04-25 08:39:00,
2013-04-25 03:44:00,29.8,24.4,30.32,NNE,22,0.0,0.0,80,0.00,,,0.00,WUHU21623XXSP,2013-04-25 08:44:00,
2013-04-25 03:49:00,29.8,24.4,30.32,NNE,22,0.0,0.0,80,0.00,,,0.00,WUHU21623XXSP,2013-04-25 08:49:00,
2013-04-25 03:54:00,29.8,24.4,30.32,NNE,22,0.0,0.0,80,0.00,,,0.00,WUHU21623XXSP,2013-04-25 08:54:00,
2013-04-25 03:59:00,29.8,24.4,30.33,NNE,22,0.0,0.0,80,0.00,,,0.00,WUHU21623XXSP,2013-04-25 08:59:00,
2013-04-25 04:04:00,29.7,24.3,30.33,NNE,22,0.0,0.0,80,0.00,,,0.00,WUHU21623XXSP,2013-04-25 09:04:00,
2013-04-25 04:09:00,29.7,24.3,30.33,NNE,22,0.0,0.0,80,0.00,,,0.00,WUHU21623XXSP,2013-04-25 09:09:00,
2013-04-25 04:14:00,29.5,24.1,30.33,NNE,22,0.0,0.0,80,0.00,,,0.00,WUHU21623XXSP,2013-04-25 09:14:00,
2013-04-25 04:19:00,29.5,24.4,30.33,NNE,22,0.0,0.0,81,0.00,,,0.00,WUHU21623XXSP,2013-04-25 09:19:00,
2013-04-25 04:24:00,29.5,24.4,30.33,NNE,22,0.0,0.0,81,0.00,,,0.00,WUHU21623XXSP,2013-04-25 09:24:00,
2013-04-25 04:29:00,29.5,24.4,30.34,NNE,22,0.0,0.0,81,0.00,,,0.00,WUHU21623XXSP,2013-04-25 09:29:00,
2013-04-25 04:34:00,29.7,24.5,30.34,NNE,22,0.0,0.0,81,0.00,,,0.00,WUHU21623XXSP,2013-04-25 09:34:00,
2013-04-25 04:39:00,29.8,25.0,30.34,NNE,22,0.0,0.0,82,0.00,,,0.00,WUHU21623XXSP,2013-04-25 09:39:00,
2013-04-25 04:44:00,29.8,25.0,30.34,NNE,22,0.0,0.0,82,0.00,,,0.00,WUHU21623XXSP,2013-04-25 09:44:00,
2013-04-25 04:49:00,29.7,24.8,30.34,NNE,22,0.0,0.0,82,0.00,,,0.00,WUHU21623XXSP,2013-04-25 09:49:00,
2013-04-25 04:54:00,29.5,24.7,30.34,NNE,22,0.0,0.0,82,0.00,,,0.00,WUHU21623XXSP,2013-04-25 09:54:00,
2013-04-25 04:59:00,29.5,24.7,30.34,NNE,22,0.0,0.0,82,0.00,,,0.00,WUHU21623XXSP,2013-04-25 09:59:00,
2013-04-25 05:04:00,29.3,24.5,30.34,NNE,22,0.0,0.0,82,0.00,,,0.00,WUHU21623XXSP,2013-04-25 10:04:00,
2013-04-25 05:09:00,29.3,24.5,30.34,NNE,22,0.0,0.0,82,0.00,,,0.00,WUHU21623XXSP,2013-04-25 10:09:00,
2013-04-25 05:14:00,29.3,24.5,30.34,NNE,22,0.0,0.0,82,0.00,,,0.00,WUHU21623XXSP,2013-04-25 10:14:00,
2013-04-25 05:19:00,29.1,24.3,30.35,NNE,22,0.0,0.0,82,0.00,,,0.00,WUHU21623XXSP,2013-04-25 10:19:00,
2013-04-25 05:24:00,29.1,24.3,30.34,NNE,22,0.0,0.0,82,0.00,,,0.00,WUHU21623XXSP,2013-04-25 10:24:00,
2013-04-25 05:29:00,29.1,24.3,30.35,NNE,22,0.0,0.0,82,0.00,,,0.00,WUHU21623XXSP,2013-04-25 10:29:00,
2013-04-25 05:34:00,29.1,24.3,30.35,NNE,22,0.0,0.0,82,0.00,,,0.00,WUHU21623XXSP,2013-04-25 10:34:00,
2013-04-25 05:39:00,29.1,24.3,30.35,NNE,22,0.0,0.0,82,0.00,,,0.00,WUHU21623XXSP,2013-04-25 10:39:00,
2013-04-25 05:44:00,28.9,24.1,30.35,NNE,22,0.0,0.0,82,0.00,,,0.00,WUHU21623XXSP,2013-04-25 10:44:00,
2013-04-25 05:49:00,28.9,24.1,30.35,NNE,22,0.0,0.0,82,0.00,,,0.00,WUHU21623XXSP,2013-04-25 10:49:00,
2013-04-25 05:54:00,28.8,23.9,30.35,NNE,22,0.0,0.0,82,0.00,,,0.00,WUHU21623XXSP,2013-04-25 10:54:00,
2013-04-25 05:59:00,28.8,23.9,30.35,NNE,22,0.0,0.0,82,0.00,,,0.00,WUHU21623XXSP,2013-04-25 10:59:00,
2013-04-25 06:04:00,28.8,23.9,30.35,NNE,22,0.0,0.0,82,0.00,,,0.00,WUHU21623XXSP,2013-04-25 11:04:00,
2013-04-25 06:09:00,28.6,23.8,30.36,NNE,22,0.0,0.0,82,0.00,,,0.00,WUHU21623XXSP,2013-04-25 11:09:00,
2013-04-25 06:14:00,28.6,23.8,30.35,NNE,22,0.0,0.0,82,0.00,,,0.00,WUHU21623XXSP,2013-04-25 11:14:00,
2013-04-25 06:19:00,28.6,23.8,30.36,NNE,22,0.0,0.0,82,0.00,,,0.00,WUHU21623XXSP,2013-04-25 11:19:00,
2013-04-25 06:24:00,28.8,24.0,30.36,NNE,22,0.0,0.0,83,0.00,,,0.00,WUHU21623XXSP,2013-04-25 11:24:00,
2013-04-25 06:29:00,28.8,24.2,30.36,NNE,22,0.0,0.0,83,0.00,,,0.00,WUHU21623XXSP,2013-04-25 11:29:00,
2013-04-25 06:34:00,29.1,24.6,30.36,NNE,22,0.0,0.0,83,0.00,,,0.00,WUHU21623XXSP,2013-04-25 11:34:00,
2013-04-25 06:39:00,29.1,24.6,30.36,NNE,22,0.0,0.0,83,0.00,,,0.00,WUHU21623XXSP,2013-04-25 11:39:00,
2013-04-25 06:44:00,28.9,24.4,30.36,NNE,22,0.0,0.0,83,0.00,,,0.00,WUHU21623XXSP,2013-04-25 11:44:00,
2013-04-25 06:49:00,28.9,24.4,30.36,NNE,22,0.0,0.0,83,0.00,,,0.00,WUHU21623XXSP,2013-04-25 11:49:00,
2013-04-25 06:54:00,29.1,24.6,30.36,NNE,22,0.0,0.0,83,0.00,,,0.00,WUHU21623XXSP,2013-04-25 11:54:00,
2013-04-25 06:59:00,29.1,24.6,30.36,NNE,22,0.0,0.0,83,0.00,,,0.00,WUHU21623XXSP,2013-04-25 11:59:00,
2013-04-25 07:04:00,29.5,24.9,30.37,NNE,22,0.0,0.0,83,0.00,,,0.00,WUHU21623XXSP,2013-04-25 12:04:00,
2013-04-25 07:09:00,29.8,25.3,30.37,NNE,22,0.0,0.0,83,0.00,,,0.00,WUHU21623XXSP,2013-04-25 12:09:00,
2013-04-25 07:14:00,30.7,26.2,30.37,NNE,22,0.0,0.0,83,0.00,,,0.00,WUHU21623XXSP,2013-04-25 12:14:00,
2013-04-25 07:19:00,31.6,27.1,30.37,NNE,22,0.0,0.0,83,0.00,,,0.00,WUHU21623XXSP,2013-04-25 12:19:00,
2013-04-25 07:24:00,32.7,27.8,30.37,NNE,22,0.0,0.0,82,0.00,,,0.00,WUHU21623XXSP,2013-04-25 12:24:00,
2013-04-25 07:29:00,34.3,29.3,30.38,NNE,22,0.0,0.0,82,0.00,,,0.00,WUHU21623XXSP,2013-04-25 12:29:00,
2013-04-25 07:34:00,36.5,30.9,30.38,NNE,22,0.0,0.0,80,0.00,,,0.00,WUHU21623XXSP,2013-04-25 12:34:00,
2013-04-25 07:39:00,37.6,31.7,30.38,NNE,22,0.0,0.0,79,0.00,,,0.00,WUHU21623XXSP,2013-04-25 12:39:00,
2013-04-25 07:44:00,38.1,32.0,30.39,NNE,22,0.0,0.0,79,0.00,,,0.00,WUHU21623XXSP,2013-04-25 12:44:00,
2013-04-25 07:49:00,38.5,32.6,30.39,NNE,22,0.0,0.0,79,0.00,,,0.00,WUHU21623XXSP,2013-04-25 12:49:00,
2013-04-25 07:54:00,38.3,32.4,30.39,NNE,22,0.0,0.0,79,0.00,,,0.00,WUHU21623XXSP,2013-04-25 12:54:00,
2013-04-25 07:59:00,38.5,32.4,30.40,NNE,22,0.0,0.0,78,0.00,,,0.00,WUHU21623XXSP,2013-04-25 12:59:00,
2013-04-25 08:04:00,39.9,33.6,30.39,NNE,22,0.0,0.0,78,0.00,,,0.00,WUHU21623XXSP,2013-04-25 13:04:00,
2013-04-25 08:09:00,40.6,33.6,30.39,NNE,22,0.0,0.0,77,0.00,,,0.00,WUHU21623XXSP,2013-04-25 13:09:00,
2013-04-25 08:14:00,40.8,33.4,30.39,NNE,22,0.0,0.0,75,0.00,,,0.00,WUHU21623XXSP,2013-04-25 13:14:00,
2013-04-25 08:19:00,40.6,33.3,30.40,NNE,22,0.0,0.0,75,0.00,,,0.00,WUHU21623XXSP,2013-04-25 13:19:00,
2013-04-25 08:24:00,40.3,32.9,30.39,NNE,22,0.0,0.0,75,0.00,,,0.00,WUHU21623XXSP,2013-04-25 13:24:00,
2013-04-25 08:29:00,40.3,32.9,30.40,NNE,22,0.0,0.0,75,0.00,,,0.00,WUHU21623XXSP,2013-04-25 13:29:00,
2013-04-25 08:34:00,40.5,33.1,30.40,NNE,22,0.0,0.0,75,0.00,,,0.00,WUHU21623XXSP,2013-04-25 13:34:00,
2013-04-25 08:39:00,40.6,33.3,30.40,NNE,22,0.0,0.0,75,0.00,,,0.00,WUHU21623XXSP,2013-04-25 13:39:00,
2013-04-25 08:44:00,41.2,33.8,30.40,NNE,22,0.0,0.0,75,0.00,,,0.00,WUHU21623XXSP,2013-04-25 13:44:00,
2013-04-25 08:49:00,41.7,34.3,30.40,NNE,22,0.0,0.0,75,0.00,,,0.00,WUHU21623XXSP,2013-04-25 13:49:00,
2013-04-25 08:54:00,42.4,34.7,30.40,NNE,22,0.0,0.0,75,0.00,,,0.00,WUHU21623XXSP,2013-04-25 13:54:00,
2013-04-25 08:59:00,43.3,35.6,30.40,NNE,22,0.0,0.0,74,0.00,,,0.00,WUHU21623XXSP,2013-04-25 13:59:00,
2013-04-25 09:04:00,44.1,35.9,30.40,NW,315,0.0,0.0,74,0.00,,,0.00,WUHU21623XXSP,2013-04-25 14:04:00,
2013-04-25 09:09:00,44.8,36.3,30.40,NW,315,0.0,0.0,72,0.00,,,0.00,WUHU21623XXSP,2013-04-25 14:09:00,
2013-04-25 09:14:00,46.2,36.2,30.40,WNW,292,0.0,0.0,68,0.00,,,0.00,WUHU21623XXSP,2013-04-25 14:14:00,
2013-04-25 09:19:00,47.1,36.3,30.40,WNW,292,0.0,0.0,66,0.00,,,0.00,WUHU21623XXSP,2013-04-25 14:19:00,
2013-04-25 09:24:00,48.2,36.8,30.40,WNW,292,0.0,0.0,64,0.00,,,0.00,WUHU21623XXSP,2013-04-25 14:24:00,
2013-04-25 09:29:00,49.3,36.8,30.40,SSW,202,0.0,0.0,62,0.00,,,0.00,WUHU21623XXSP,2013-04-25 14:29:00,
2013-04-25 09:34:00,49.8,37.1,30.40,SSW,202,0.0,0.0,61,0.00,,,0.00,WUHU21623XXSP,2013-04-25 14:34:00,
2013-04-25 09:39:00,50.2,36.8,30.40,SSW,202,0.0,0.0,60,0.00,,,0.00,WUHU21623XXSP,2013-04-25 14:39:00,
2013-04-25 09:44:00,50.9,36.6,30.40,SSW,202,0.0,0.0,58,0.00,,,0.00,WUHU21623XXSP,2013-04-25 14:44:00,
2013-04-25 09:49:00,51.6,36.8,30.40,SSW,202,0.0,0.0,57,0.00,,,0.00,WUHU21623XXSP,2013-04-25 14:49:00,
2013-04-25 09:54:00,52.0,36.2,30.41,SW,225,0.0,0.0,55,0.00,,,0.00,WUHU21623XXSP,2013-04-25 14:54:00,
2013-04-25 09:59:00,52.5,36.3,30.40,WSW,247,0.0,0.0,54,0.00,,,0.00,WUHU21623XXSP,2013-04-25 14:59:00,
2013-04-25 10:04:00,53.2,37.0,30.41,WSW,247,0.0,0.0,54,0.00,,,0.00,WUHU21623XXSP,2013-04-25 15:04:00,
2013-04-25 10:09:00,53.2,37.0,30.41,WSW,247,0.0,0.0,54,0.00,,,0.00,WUHU21623XXSP,2013-04-25 15:09:00,
2013-04-25 10:23:00,54.5,35.7,30.41,SSW,202,0.0,0.0,49,0.00,,,0.00,WUHU21623XXSP,2013-04-25 15:23:00,
2013-04-25 12:55:00,66.9,36.0,30.36,WSW,247,0.0,0.0,32,0.00,,,0.00,WUHU21623XXSP,2013-04-25 17:55:00,
2013-04-25 13:00:00,67.3,35.6,30.36,WSW,247,0.0,0.0,31,0.00,,,0.00,WUHU21623XXSP,2013-04-25 18:00:00,
2013-04-25 13:05:00,67.6,36.6,30.36,WSW,247,0.0,0.0,32,0.00,,,0.00,WUHU21623XXSP,2013-04-25 18:05:00,
2013-04-25 13:10:00,68.4,36.5,30.36,WSW,247,0.0,13.0,31,0.00,,,0.00,WUHU21623XXSP,2013-04-25 18:10:00,
2013-04-25 13:15:00,68.5,36.6,30.36,NE,45,0.0,0.0,31,0.00,,,0.00,WUHU21623XXSP,2013-04-25 18:15:00,
2013-04-25 13:20:00,69.3,37.5,30.35,NE,45,0.0,0.0,32,0.00,,,0.00,WUHU21623XXSP,2013-04-25 18:20:00,
2013-04-25 13:25:00,70.2,38.1,30.35,South,180,0.0,0.0,31,0.00,,,0.00,WUHU21623XXSP,2013-04-25 18:25:00,
2013-04-25 13:30:00,70.2,36.3,30.35,South,180,0.0,0.0,29,0.00,,,0.00,WUHU21623XXSP,2013-04-25 18:30:00,
2013-04-25 13:35:00,70.3,37.5,30.35,SSW,202,3.4,6.5,30,0.00,,,0.00,WUHU21623XXSP,2013-04-25 18:35:00,
2013-04-25 13:40:00,70.5,37.7,30.35,SSW,202,0.0,6.5,30,0.00,,,0.00,WUHU21623XXSP,2013-04-25 18:40:00,
2013-04-25 13:45:00,70.7,36.8,30.34,NE,45,0.0,0.0,29,0.00,,,0.00,WUHU21623XXSP,2013-04-25 18:45:00,
2013-04-25 13:50:00,71.2,37.3,30.34,SSE,157,0.0,0.0,29,0.00,,,0.00,WUHU21623XXSP,2013-04-25 18:50:00,
2013-04-25 13:55:00,72.3,39.2,30.34,South,180,0.0,0.0,30,0.00,,,0.00,WUHU21623XXSP,2013-04-25 18:55:00,
2013-04-25 14:00:00,73.2,40.0,30.34,South,180,0.0,0.0,30,0.00,,,0.00,WUHU21623XXSP,2013-04-25 19:00:00,
2013-04-25 14:05:00,73.9,38.6,30.34,SW,225,0.0,0.0,28,0.00,,,0.00,WUHU21623XXSP,2013-04-25 19:05:00,
2013-04-25 14:10:00,73.2,34.9,30.34,WSW,247,0.0,0.0,25,0.00,,,0.00,WUHU21623XXSP,2013-04-25 19:10:00,
2013-04-25 14:15:00,72.5,38.4,30.34,NNE,22,0.0,0.0,29,0.00,,,0.00,WUHU21623XXSP,2013-04-25 19:15:00,
2013-04-25 14:20:00,73.0,38.8,30.34,ESE,112,0.0,0.0,29,0.00,,,0.00,WUHU21623XXSP,2013-04-25 19:20:00,
2013-04-25 14:25:00,73.8,39.4,30.33,WSW,247,0.0,0.0,29,0.00,,,0.00,WUHU21623XXSP,2013-04-25 19:25:00,
2013-04-25 14:30:00,74.1,37.7,30.34,SW,225,0.0,0.0,27,0.00,,,0.00,WUHU21623XXSP,2013-04-25 19:30:00,
2013-04-25 14:35:00,73.9,35.5,30.33,South,180,0.0,0.0,25,0.00,,,0.00,WUHU21623XXSP,2013-04-25 19:35:00,
2013-04-25 14:40:00,73.8,36.4,30.33,SSW,202,0.0,0.0,26,0.00,,,0.00,WUHU21623XXSP,2013-04-25 19:40:00,
2013-04-25 14:45:00,73.9,36.5,30.33,ESE,112,0.0,0.0,26,0.00,,,0.00,WUHU21623XXSP,2013-04-25 19:45:00,
2013-04-25 14:50:00,73.6,35.2,30.32,NE,45,0.0,0.0,25,0.00,,,0.00,WUHU21623XXSP,2013-04-25 19:50:00,
2013-04-25 14:55:00,73.2,35.9,30.32,NE,45,0.0,0.0,26,0.00,,,0.00,WUHU21623XXSP,2013-04-25 19:55:00,
2013-04-25 15:00:00,73.0,35.8,30.32,NE,45,0.0,0.0,26,0.00,,,0.00,WUHU21623XXSP,2013-04-25 20:00:00,
2013-04-25 15:05:00,72.5,37.3,30.32,NNE,22,0.0,0.0,28,0.00,,,0.00,WUHU21623XXSP,2013-04-25 20:05:00,
2013-04-25 15:10:00,72.7,37.5,30.32,North,0,0.0,0.0,28,0.00,,,0.00,WUHU21623XXSP,2013-04-25 20:10:00,
2013-04-25 15:15:00,73.2,35.9,30.32,NE,45,0.0,0.0,26,0.00,,,0.00,WUHU21623XXSP,2013-04-25 20:15:00,
2013-04-25 15:20:00,73.2,38.9,30.31,NE,45,0.0,0.0,29,0.00,,,0.00,WUHU21623XXSP,2013-04-25 20:20:00,
2013-04-25 15:25:00,73.9,38.6,30.31,East,90,0.0,4.5,28,0.00,,,0.00,WUHU21623XXSP,2013-04-25 20:25:00,
2013-04-25 15:30:00,73.8,36.4,30.31,ENE,67,0.0,4.5,26,0.00,,,0.00,WUHU21623XXSP,2013-04-25 20:30:00,
2013-04-25 15:35:00,74.5,38.0,30.30,ENE,67,0.0,0.0,27,0.00,,,0.00,WUHU21623XXSP,2013-04-25 20:35:00,
2013-04-25 15:40:00,74.8,38.3,30.30,NE,45,1.8,1.8,27,0.00,,,0.00,WUHU21623XXSP,2013-04-25 20:40:00,
2013-04-25 15:45:00,74.7,38.2,30.30,North,0,0.0,1.8,27,0.00,,,0.00,WUHU21623XXSP,2013-04-25 20:45:00,
2013-04-25 15:50:00,74.5,36.0,30.30,NNE,22,0.0,0.0,25,0.00,,,0.00,WUHU21623XXSP,2013-04-25 20:50:00,
2013-04-25 15:55:00,74.7,35.1,30.29,NNE,22,0.0,0.0,24,0.00,,,0.00,WUHU21623XXSP,2013-04-25 20:55:00,
2013-04-25 16:00:00,73.6,35.2,30.30,North,0,0.0,0.0,25,0.00,,,0.00,WUHU21623XXSP,2013-04-25 21:00:00,
2013-04-25 16:05:00,72.7,34.4,30.30,NE,45,0.0,0.0,25,0.00,,,0.00,WUHU21623XXSP,2013-04-25 21:05:00,
2013-04-25 16:10:00,72.5,35.3,30.29,NE,45,0.0,0.0,26,0.00,,,0.00,WUHU21623XXSP,2013-04-25 21:10:00,
2013-04-25 16:15:00,73.4,35.1,30.30,WSW,247,0.0,0.0,25,0.00,,,0.00,WUHU21623XXSP,2013-04-25 21:15:00,
2013-04-25 16:20:00,73.2,35.9,30.29,WSW,247,0.0,3.4,26,0.00,,,0.00,WUHU21623XXSP,2013-04-25 21:20:00,
2013-04-25 16:25:00,73.0,34.8,30.29,ENE,67,0.0,3.4,25,0.00,,,0.00,WUHU21623XXSP,2013-04-25 21:25:00,
2013-04-25 16:30:00,72.1,35.0,30.29,NNE,22,0.0,0.0,26,0.00,,,0.00,WUHU21623XXSP,2013-04-25 21:30:00,
2013-04-25 16:35:00,72.1,34.0,30.29,NE,45,0.0,0.0,25,0.00,,,0.00,WUHU21623XXSP,2013-04-25 21:35:00,
2013-04-25 16:40:00,72.1,35.0,30.28,NE,45,0.0,0.0,26,0.00,,,0.00,WUHU21623XXSP,2013-04-25 21:40:00,
2013-04-25 16:45:00,72.0,34.8,30.28,NNE,22,0.0,0.0,26,0.00,,,0.00,WUHU21623XXSP,2013-04-25 21:45:00,
2013-04-25 16:50:00,72.1,36.0,30.28,NNE,22,0.0,0.0,27,0.00,,,0.00,WUHU21623XXSP,2013-04-25 21:50:00,
2013-04-25 16:55:00,72.3,35.1,30.28,NNE,22,0.0,0.0,26,0.00,,,0.00,WUHU21623XXSP,2013-04-25 21:55:00,
2013-04-25 17:00:00,72.1,34.0,30.28,ENE,67,0.0,0.0,25,0.00,,,0.00,WUHU21623XXSP,2013-04-25 22:00:00,
2013-04-25 17:05:00,72.0,33.8,30.28,ENE,67,0.0,0.0,25,0.00,,,0.00,WUHU21623XXSP,2013-04-25 22:05:00,
2013-04-25 17:10:00,71.8,34.7,30.27,ENE,67,0.0,0.0,26,0.00,,,0.00,WUHU21623XXSP,2013-04-25 22:10:00,
2013-04-25 17:15:00,72.0,34.8,30.27,North,0,0.0,0.0,26,0.00,,,0.00,WUHU21623XXSP,2013-04-25 22:15:00,
2013-04-25 17:20:00,71.4,34.4,30.27,North,0,0.0,0.0,26,0.00,,,0.00,WUHU21623XXSP,2013-04-25 22:20:00,
2013-04-25 17:25:00,71.2,33.2,30.27,North,0,0.0,0.0,25,0.00,,,0.00,WUHU21623XXSP,2013-04-25 22:25:00,
2013-04-25 17:30:00,70.7,34.8,30.27,NW,315,0.0,0.0,27,0.00,,,0.00,WUHU21623XXSP,2013-04-25 22:30:00,
2013-04-25 17:35:00,70.5,34.6,30.26,NW,315,0.0,0.0,27,0.00,,,0.00,WUHU21623XXSP,2013-04-25 22:35:00,
2013-04-25 17:40:00,70.3,36.5,30.26,NW,315,0.0,0.0,29,0.00,,,0.00,WUHU21623XXSP,2013-04-25 22:40:00,
2013-04-25 17:45:00,70.2,34.3,30.26,NW,315,0.0,0.0,27,0.00,,,0.00,WUHU21623XXSP,2013-04-25 22:45:00,
2013-04-25 17:50:00,70.3,33.5,30.26,SW,225,0.0,0.0,26,0.00,,,0.00,WUHU21623XXSP,2013-04-25 22:50:00,
2013-04-25 17:55:00,70.3,34.5,30.26,SW,225,0.0,0.0,27,0.00,,,0.00,WUHU21623XXSP,2013-04-25 22:55:00,
2013-04-25 18:00:00,70.7,34.8,30.26,SW,225,0.0,0.0,27,0.00,,,0.00,WUHU21623XXSP,2013-04-25 23:00:00,
2013-04-25 18:05:00,70.9,35.0,30.26,SSW,202,0.0,0.0,27,0.00,,,0.00,WUHU21623XXSP,2013-04-25 23:05:00,
2013-04-25 18:10:00,70.7,33.8,30.26,South,180,0.0,0.0,26,0.00,,,0.00,WUHU21623XXSP,2013-04-25 23:10:00,
2013-04-25 18:15:00,70.3,34.5,30.26,South,180,0.0,0.0,27,0.00,,,0.00,WUHU21623XXSP,2013-04-25 23:15:00,
2013-04-25 18:20:00,70.0,34.2,30.26,SE,135,10.3,10.3,27,0.00,,,0.00,WUHU21623XXSP,2013-04-25 23:20:00,
2013-04-25 18:25:00,69.4,35.7,30.26,SSW,202,0.0,10.3,29,0.00,,,0.00,WUHU21623XXSP,2013-04-25 23:25:00,
2013-04-25 18:30:00,68.4,36.5,30.26,SSW,202,0.0,0.0,31,0.00,,,0.00,WUHU21623XXSP,2013-04-25 23:30:00,
2013-04-25 18:35:00,67.8,36.0,30.26,South,180,0.0,0.0,31,0.00,,,0.00,WUHU21623XXSP,2013-04-25 23:35:00,
2013-04-25 18:40:00,67.1,35.4,30.26,South,180,0.9,1.3,31,0.00,,,0.00,WUHU21623XXSP,2013-04-25 23:40:00,
2013-04-25 18:45:00,66.7,35.1,30.26,South,180,5.6,5.6,31,0.00,,,0.00,WUHU21623XXSP,2013-04-25 23:45:00,
2013-04-25 18:50:00,66.2,35.4,30.26,South,180,0.0,5.6,32,0.00,,,0.00,WUHU21623XXSP,2013-04-25 23:50:00,
2013-04-25 18:55:00,66.0,35.3,30.26,South,180,0.0,0.0,32,0.00,,,0.00,WUHU21623XXSP,2013-04-25 23:55:00,
2013-04-25 19:00:00,65.5,34.8,30.26,South,180,0.0,0.7,32,0.00,,,0.00,WUHU21623XXSP,2013-04-26 00:00:00,
2013-04-25 19:05:00,65.3,34.6,30.26,SSE,157,0.0,0.7,32,0.00,,,0.00,WUHU21623XXSP,2013-04-26 00:05:00,
2013-04-25 19:10:00,64.9,34.3,30.26,South,180,0.0,0.0,32,0.00,,,0.00,WUHU21623XXSP,2013-04-26 00:10:00,
2013-04-25 19:15:00,64.8,34.8,30.27,SSW,202,0.0,0.0,33,0.00,,,0.00,WUHU21623XXSP,2013-04-26 00:15:00,
2013-04-25 19:20:00,64.6,34.7,30.27,SSW,202,0.0,0.0,33,0.00,,,0.00,WUHU21623XXSP,2013-04-26 00:20:00,
2013-04-25 19:25:00,64.0,34.9,30.27,SW,225,0.0,0.0,34,0.00,,,0.00,WUHU21623XXSP,2013-04-26 00:25:00,
2013-04-25 19:30:00,63.9,34.8,30.27,South,180,0.0,0.0,34,0.00,,,0.00,WUHU21623XXSP,2013-04-26 00:30:00,
2013-04-25 19:35:00,63.7,34.6,30.27,South,180,0.0,0.0,34,0.00,,,0.00,WUHU21623XXSP,2013-04-26 00:35:00,
2013-04-25 19:40:00,63.3,34.3,30.26,South,180,0.0,0.0,34,0.00,,,0.00,WUHU21623XXSP,2013-04-26 00:40:00,
2013-04-25 19:45:00,63.1,34.1,30.27,South,180,0.0,0.0,34,0.00,,,0.00,WUHU21623XXSP,2013-04-26 00:45:00,
2013-04-25 19:50:00,63.1,34.1,30.27,South,180,0.0,0.0,34,0.00,,,0.00,WUHU21623XXSP,2013-04-26 00:50:00,
2013-04-25 19:55:00,63.0,33.9,30.27,South,180,0.0,0.0,34,0.00,,,0.00,WUHU21623XXSP,2013-04-26 00:55:00,
2013-04-25 20:00:00,62.8,33.8,30.27,South,180,0.0,0.0,34,0.00,,,0.00,WUHU21623XXSP,2013-04-26 01:00:00,
2013-04-25 20:05:00,62.4,34.2,30.27,South,180,0.0,0.0,35,0.00,,,0.00,WUHU21623XXSP,2013-04-26 01:05:00,
2013-04-25 20:10:00,61.9,33.7,30.26,South,180,0.0,0.0,35,0.00,,,0.00,WUHU21623XXSP,2013-04-26 01:10:00,
2013-04-25 20:15:00,61.7,33.5,30.26,South,180,0.0,0.0,35,0.00,,,0.00,WUHU21623XXSP,2013-04-26 01:15:00,
2013-04-25 20:20:00,61.3,33.2,30.26,South,180,0.0,0.0,35,0.00,,,0.00,WUHU21623XXSP,2013-04-26 01:20:00,
2013-04-25 20:26:00,61.0,33.6,30.26,South,180,0.0,0.0,36,0.00,,,0.00,WUHU21623XXSP,2013-04-26 01:26:00,
2013-04-25 20:31:00,60.6,34.0,30.26,South,180,0.0,0.0,37,0.00,,,0.00,WUHU21623XXSP,2013-04-26 01:31:00,
2013-04-25 20:36:00,60.6,34.0,30.25,South,180,0.0,0.0,37,0.00,,,0.00,WUHU21623XXSP,2013-04-26 01:36:00,
2013-04-25 20:41:00,60.1,34.2,30.26,South,180,0.0,0.0,38,0.00,,,0.00,WUHU21623XXSP,2013-04-26 01:41:00,
2013-04-25 20:46:00,60.1,34.2,30.26,South,180,0.0,0.0,38,0.00,,,0.00,WUHU21623XXSP,2013-04-26 01:46:00,
2013-04-25 20:51:00,59.7,34.1,30.27,South,180,0.0,0.0,38,0.00,,,0.00,WUHU21623XXSP,2013-04-26 01:51:00,
2013-04-25 20:56:00,59.4,34.3,30.27,South,180,0.0,0.0,39,0.00,,,0.00,WUHU21623XXSP,2013-04-26 01:56:00,
2013-04-25 21:01:00,59.0,34.0,30.27,South,180,0.0,0.0,39,0.00,,,0.00,WUHU21623XXSP,2013-04-26 02:01:00,
2013-04-25 21:06:00,58.8,34.5,30.27,South,180,0.0,0.0,40,0.00,,,0.00,WUHU21623XXSP,2013-04-26 02:06:00,
2013-04-25 21:11:00,58.8,35.1,30.27,South,180,0.0,0.0,41,0.00,,,0.00,WUHU21623XXSP,2013-04-26 02:11:00,
2013-04-25 21:16:00,58.8,35.1,30.27,South,180,0.0,0.0,41,0.00,,,0.00,WUHU21623XXSP,2013-04-26 02:16:00,
2013-04-25 21:21:00,58.5,34.8,30.27,South,180,0.0,0.0,41,0.00,,,0.00,WUHU21623XXSP,2013-04-26 02:21:00,
2013-04-25 21:26:00,58.3,34.6,30.28,South,180,0.0,0.0,41,0.00,,,0.00,WUHU21623XXSP,2013-04-26 02:26:00,
2013-04-25 21:31:00,58.3,34.1,30.28,South,180,0.0,0.0,40,0.00,,,0.00,WUHU21623XXSP,2013-04-26 02:31:00,
2013-04-25 21:36:00,58.1,34.1,30.28,South,180,0.0,0.0,41,0.00,,,0.00,WUHU21623XXSP,2013-04-26 02:36:00,
2013-04-25 21:41:00,57.9,34.3,30.28,South,180,0.0,0.0,41,0.00,,,0.00,WUHU21623XXSP,2013-04-26 02:41:00,
2013-04-25 21:46:00,57.9,34.9,30.28,South,180,0.0,0.0,42,0.00,,,0.00,WUHU21623XXSP,2013-04-26 02:46:00,
2013-04-25 21:51:00,57.7,35.3,30.28,South,180,0.0,0.0,43,0.00,,,0.00,WUHU21623XXSP,2013-04-26 02:51:00,
2013-04-25 21:56:00,57.6,35.1,30.28,South,180,0.0,0.0,43,0.00,,,0.00,WUHU21623XXSP,2013-04-26 02:56:00,
2013-04-25 22:01:00,57.4,35.1,30.28,South,180,0.0,0.0,43,0.00,,,0.00,WUHU21623XXSP,2013-04-26 03:01:00,
2013-04-25 22:06:00,57.4,35.5,30.28,South,180,0.0,0.0,44,0.00,,,0.00,WUHU21623XXSP,2013-04-26 03:06:00,
2013-04-25 22:11:00,57.4,35.0,30.28,South,180,0.0,0.0,43,0.00,,,0.00,WUHU21623XXSP,2013-04-26 03:11:00,
2013-04-25 22:16:00,57.4,35.0,30.28,South,180,0.0,0.0,43,0.00,,,0.00,WUHU21623XXSP,2013-04-26 03:16:00,
2013-04-25 22:21:00,57.6,35.1,30.28,South,180,0.0,0.0,43,0.00,,,0.00,WUHU21623XXSP,2013-04-26 03:21:00,
2013-04-25 22:26:00,57.7,35.3,30.27,South,180,0.0,0.0,43,0.00,,,0.00,WUHU21623XXSP,2013-04-26 03:26:00,
2013-04-25 22:31:00,57.9,34.9,30.28,South,180,0.0,0.0,42,0.00,,,0.00,WUHU21623XXSP,2013-04-26 03:31:00,
2013-04-25 22:36:00,58.1,34.9,30.28,South,180,0.0,0.0,41,0.00,,,0.00,WUHU21623XXSP,2013-04-26 03:36:00,
2013-04-25 22:41:00,58.6,34.6,30.28,South,180,0.0,0.0,41,0.00,,,0.00,WUHU21623XXSP,2013-04-26 03:41:00,
2013-04-25 22:46:00,58.8,34.5,30.27,South,180,0.0,0.0,40,0.00,,,0.00,WUHU21623XXSP,2013-04-26 03:46:00,
2013-04-25 22:51:00,58.8,34.5,30.27,South,180,0.0,0.0,40,0.00,,,0.00,WUHU21623XXSP,2013-04-26 03:51:00,
2013-04-25 22:56:00,58.8,34.5,30.27,SSE,157,0.0,0.0,40,0.00,,,0.00,WUHU21623XXSP,2013-04-26 03:56:00,
2013-04-25 23:01:00,58.8,33.8,30.27,SSE,157,0.0,0.0,39,0.00,,,0.00,WUHU21623XXSP,2013-04-26 04:01:00,
2013-04-25 23:06:00,59.0,34.0,30.27,ESE,112,0.0,0.0,39,0.00,,,0.00,WUHU21623XXSP,2013-04-26 04:06:00,
2013-04-25 23:11:00,59.2,34.1,30.26,ESE,112,0.0,0.0,40,0.00,,,0.00,WUHU21623XXSP,2013-04-26 04:11:00,
2013-04-25 23:16:00,59.2,34.9,30.26,SSE,157,0.0,0.0,40,0.00,,,0.00,WUHU21623XXSP,2013-04-26 04:16:00,
2013-04-25 23:21:00,59.2,34.9,30.26,SSE,157,0.0,0.0,40,0.00,,,0.00,WUHU21623XXSP,2013-04-26 04:21:00,
2013-04-25 23:26:00,59.2,34.9,30.26,SSE,157,0.0,0.0,39,0.00,,,0.00,WUHU21623XXSP,2013-04-26 04:26:00,
2013-04-25 23:31:00,59.4,34.1,30.26,SSE,157,0.0,0.0,39,0.00,,,0.00,WUHU21623XXSP,2013-04-26 04:31:00,
2013-04-25 23:36:00,59.2,34.9,30.25,SSE,157,0.0,0.0,39,0.00,,,0.00,WUHU21623XXSP,2013-04-26 04:36:00,
2013-04-25 23:41:00,59.4,35.0,30.25,SSE,157,0.0,0.0,40,0.00,,,0.00,WUHU21623XXSP,2013-04-26 04:41:00,
2013-04-25 23:46:00,59.2,34.9,30.25,SSE,157,0.0,0.0,40,0.00,,,0.00,WUHU21623XXSP,2013-04-26 04:46:00,
2013-04-25 23:51:00,59.2,34.9,30.25,South,180,0.0,0.0,40,0.00,,,0.00,WUHU21623XXSP,2013-04-26 04:51:00,
2013-04-25 23:56:00,59.0,34.7,30.25,SSE,157,0.0,0.0,40,0.00,,,0.00,WUHU21623XXSP,2013-04-26 04:56:00,